Regional Weather Roundup
Issued by NWS

Home | Current Version | Previous Version | Text Only | Print | Product List | Glossary Off
Versions: 1 2 3 4 5 6 7 8 9 10 11 12 13 14 15 16 17 18 19 20 21 22 23 24 25 26 27 28 29 30 31 32 33 34 35 36 37 38 39 40 41 42 43 44 45 46 47 48 49 50

000
ASUS44 KMEG 290710
RWRTN
TENNESSEE HOURLY STATE WEATHER ROUNDUP
NATIONAL WEATHER SERVICE MEMPHIS TN
200 AM CDT SUN MAY 29 2016

TNZ002-004-019-021-049-052-054-088>092-290800-
WEST TENNESSEE

CITY           SKY/WX    TMP DP  RH WIND       PRES   REMARKS
MEMPHIS INTL   CLEAR     71  67  87 S6        30.05S
NWS MEMPHIS      N/A     68 N/A N/A MISG        N/A
JACKSON        CLEAR     66  64  93 S3        30.05F
DYERSBURG      CLEAR     70  64  83 CALM      30.05R
UNION CITY     CLEAR     66  66 100 CALM      30.04R
PARIS          CLEAR     64  63  94 S5        30.05F
LEXINGTON      CLEAR     64  64 100 CALM      30.05F
$$

TNZ008-025-027-028-033-062-065-066-290800-
NORTH MIDDLE TENNESSEE

CITY           SKY/WX    TMP DP  RH WIND       PRES   REMARKS
NASHVILLE      MOCLDY    68  62  81 CALM      30.10F
CLARKSVILLE    CLEAR     68  64  87 SE5       30.06F
SMYRNA         PTCLDY    66  66 100 CALM      30.11F
COOKEVILLE     CLEAR     63  63 100 CALM      30.12S
CROSSVILLE     MOCLDY    65  61  87 CALM      30.17F
$$

TNZ061-075-076-078-094-096-097-290800-
SOUTH MIDDLE TENNESSEE

CITY           SKY/WX    TMP DP  RH WIND       PRES   REMARKS
FAYETTEVILLE   PTCLDY    64  64 100 CALM      30.11S
TULLAHOMA      MOCLDY    63  63 100 CALM      30.13S VSB 1/4
WINCHESTER     CLEAR     64  61  88 CALM      30.12F
MCMINNVILLE    CLEAR     63  63 100 CALM      30.12F
COLUMBIA       CLEAR    N/A N/A N/A CALM      30.08F
SHELBYVILLE    CLEAR     66  66 100 E5        30.12S
$$

TNZ017-018-042-046-047-290800-
NORTHEAST TENNESSEE

CITY           SKY/WX    TMP DP  RH WIND       PRES   REMARKS
TRI CITIES     MOCLDY    65  58  78 CALM      30.14F
$$

TNZ012-013-036-069-073-074-290800-
CENTRAL EAST TENNESSEE

CITY           SKY/WX    TMP DP  RH WIND       PRES   REMARKS
KNOXVILLE      CLOUDY    73  62  68 W7        30.11
OAK RIDGE      CLOUDY    70  64  81 CALM      30.14R
GATLINBURG     CLEAR     64  63  94 CALM      30.12R
$$

TNZ083-085-099-290800-
SOUTHEAST TENNESSEE

CITY           SKY/WX    TMP DP  RH WIND       PRES   REMARKS
CHATTANOOGA    PTCLDY    70  62  76 CALM      30.12S
$$

SKY/WX REPORTED AS FAIR MEANS FEW OR NO CLOUDS BELOW
12 THOUSAND FEET.




USA.gov is the U.S. government's official web portal to all federal, state and local government web resources and services.